Location: Hayes Landing
(38.2687°N, 75.1974°W)
Time: 17:45:02
(UTC+00:00)

Daily predictions for brighter satellites

Satellite Brightness Start Highest point End
(mag) Time Altitude Azimuth Time Altitude Azimuth Time Altitude Azimuth
STARLINK-1218 3.3 23:41:53 10° WSW 23:44:58 65° NW 23:48:04 10° NE
STARLINK-1226 3.3 23:42:20 10° WSW 23:45:25 64° NW 23:48:31 10° NE
OAO 2 Rocket 3.9 23:40:31 10° W 23:45:31 52° S 23:50:25 10° ESE
STARLINK-1230 3.5 23:41:52 10° SW 23:45:50 65° SE 23:49:48 10° NE
STARLINK-1254 3.3 23:42:45 10° WSW 23:45:50 63° NW 23:48:57 10° NE
STARLINK-1215 3.4 23:43:14 10° WSW 23:46:19 62° NW 23:49:24 10° NE
STARLINK-1231 3.4 23:43:41 10° WSW 23:46:45 62° NW 23:49:51 10° NE
Cosmos 2219 Rocket 4.0 23:41:47 10° SW 23:47:00 37° WNW 23:52:15 10° N
STARLINK-1203 3.4 23:43:26 10° SW 23:47:19 74° SE 23:51:14 10° NE
ADEOS Rocket 3.2 23:40:48 10° NNE 23:47:35 87° WNW 23:53:37 10° SSW
STARLINK-1232 3.4 23:44:35 10° WSW 23:47:40 60° NW 23:50:45 10° NE
STARLINK-1217 3.4 23:45:03 10° WSW 23:48:06 59° NW 23:51:12 10° NE
STARLINK-1208 3.5 23:45:29 10° WSW 23:48:33 59° NW 23:51:40 10° NE
Meteor 2-21 4.4 23:42:31 10° N 23:48:34 74° E 23:54:37 10° SSE
STARLINK-1229 3.5 23:45:58 10° WSW 23:49:01 58° NW 23:52:05 10° NE
STARLINK-1271 3.5 23:46:24 10° WSW 23:49:27 57° NW 23:52:33 10° NE
STARLINK-1270 3.5 23:46:52 10° WSW 23:49:56 57° NW 23:53:00 10° NE
Cosmos 1048 Rocket 3.9 23:44:56 10° SSW 23:50:03 82° ESE 23:55:14 10° NNE
Orbus 7S? 3.7 23:47:48 10° NNW 23:50:15 25° NE 23:52:21 10° E
STARLINK-1154 3.5 23:47:18 10° WSW 23:50:22 56° NW 23:53:26 10° NE
STARLINK-1243 3.5 23:46:27 10° SW 23:50:25 72° SE 23:54:25 10° NE
STARLINK-1197 3.6 23:48:13 10° WSW 23:51:17 55° NW 23:54:21 10° NE
Meteor 2-21 Rocket 4.5 23:45:19 10° N 23:51:18 59° E 23:57:15 10° SSE
STARLINK-1189 3.6 23:48:40 10° WSW 23:51:43 54° NW 23:54:47 10° NE
STARLINK-1187 4.0 23:49:34 10° WSW 23:52:35 46° NW 23:55:37 10° NE
STARLINK-1188 3.7 23:49:36 10° WSW 23:52:38 53° NW 23:55:42 10° NE
STARLINK-1198 3.7 23:50:01 10° WSW 23:53:02 52° NW 23:56:06 10° NE
STARLINK-1235 4.3 23:50:21 10° WSW 23:53:18 39° NW 23:56:18 10° NE
STARLINK-1199 3.8 23:51:33 10° WSW 23:54:35 50° NW 23:57:39 10° NE
STARLINK-1236 3.5 23:50:59 10° SW 23:54:59 79° SE 23:59:00 10° NE
STARLINK-1191 3.8 23:51:59 10° WSW 23:55:01 50° NW 23:58:06 10° NE
STARLINK-1210 3.8 23:52:27 10° WSW 23:55:29 49° NW 23:58:33 10° NE
STARLINK-1221 3.8 23:53:02 10° WSW 23:56:03 48° NW 23:59:07 10° NE
STARLINK-1219 3.8 23:53:21 10° WSW 23:56:23 48° NW 23:59:27 10° NE
STARLINK-1222 3.9 23:53:48 10° WSW 23:56:51 48° NW 23:59:54 10° NE
